Simultaneous Nadir Overpasses (SNOs) Predictions

Prediction of SNOs between NOAA-19 and NPP Satellite Orbit:

Table of predicted SNOs for the next 14.0 days since TLE Epoch: 9/13/2019
Index Date (NOAA-19) Time (NOAA-19) Lat,Lon (NOAA-19) SZA (NOAA-19 ) Date (NPP) Time (NPP) Lat,Lon (NPP) SZA (NPP ) Distance(km) Time Diff (sec)
1 09/26/2019 19:22:53 79.87,-148.41 83.08 09/26/2019 19:23:57 79.85,-148.32 83.03 2.94 64
2 09/26/2019 20:13:54 -79.86, 18.73 96.91 09/26/2019 20:14:43 -79.88, 18.69 96.91 2.26 49
3 09/26/2019 21:04:54 79.87,-173.99 83.11 09/26/2019 21:05:28 79.89,-174.02 83.11 2.11 34
4 09/26/2019 21:55:54 -79.88, -6.54 96.89 09/26/2019 21:56:13 -79.89, -6.72 96.88 3.44 19
5 09/26/2019 22:46:54 79.89, 160.74 83.13 09/26/2019 22:46:58 79.89, 160.58 83.15 3.21 4
6 09/26/2019 23:37:55 -79.88, -32.11 96.86 09/26/2019 23:37:43 -79.89, -32.12 96.84 1.38 12
7 09/27/2019 00:28:55 79.88, 135.16 83.16 09/27/2019 00:28:28 79.89, 135.17 83.18 1.38 27
8 09/27/2019 01:19:55 -79.90, -57.38 96.84 09/27/2019 01:19:13 -79.89, -57.53 96.81 2.81 42
9 09/27/2019 02:10:55 79.90, 109.89 83.18 09/27/2019 02:09:58 79.90, 109.77 83.21 2.41 57




NCC Satellite Simultaneous Nadir Overpasses (SNOs) Prediction Service
